Regional Weather Roundup
Issued by NWS

Home | Current Version | Previous Version | Text Only | Print | Product List | Glossary Off
Versions: 1 2 3 4 5 6 7 8 9 10 11 12 13 14 15 16 17 18 19 20 21 22 23 24 25 26 27 28 29 30 31 32 33 34 35 36 37 38 39 40 41 42 43 44 45 46 47 48 49 50

000
ASUS43 KLSX 050157
RWRMO

WEATHER SUMMARY FOR MISSOURI
NATIONAL WEATHER SERVICE SPRINGFIELD MO
800 PM CST SUN DEC 04 2016

NOTE: "FAIR" INDICATES FEW OR NO CLOUDS BELOW 12,000 FEET WITH NO
       SIGNIFICANT WEATHER AND/OR OBSTRUCTIONS TO VISIBILITY.
       CURRENT SKY AND/OR WEATHER CONDITIONS ARE NOT AVAILABLE FOR
       CHILLICOTHE AND FARMINGTON.

MOZ001>031-035>038-043-044-053-054-050300-
...NORTHERN AND WESTERN MISSOURI...

CITY           SKY/WX    TMP DP  RH WIND       PRES   REMARKS
KANSAS CTY INT CLEAR     32  29  88 SW7       29.99S FOG     WCI  26
LEE`S SUMMIT   CLEAR     37  35  92 SW8       30.00S
ST JOSEPH      CLEAR     33  32  96 S7        29.99S WCI  27
CHILLICOTHE      N/A     32  31  96 CALM      30.00S

$$
MOZ066>068-077>081-088>096-101>105-050300-
...SOUTHWEST MISSOURI...

CITY           SKY/WX    TMP DP  RH WIND       PRES   REMARKS
SPRINGFIELD    CLEAR     36  33  89 NW5       30.01S
JOPLIN         CLEAR     34  34 100 CALM      30.03F
BRANSON        MOCLDY    39  37  93 CALM      30.03S

$$
MOZ032>034-039>042-045>050-055>058-069>072-050300-
...CENTRAL MISSOURI...

CITY           SKY/WX    TMP DP  RH WIND       PRES   REMARKS
COLUMBIA       NOT AVBL
JEFFERSON CITY CLEAR     34  34 100 CALM      30.02S
ROLLA          CLEAR     36  35  96 W7        30.00S
SEDALIA        CLEAR     38  34  85 SW6       30.02S
WARRENSBURG    CLEAR     34  32  93 S5        30.01S WCI  30

$$
MOZ051-052-059>065-050300-
...EAST CENTRAL MISSOURI...

CITY           SKY/WX    TMP DP  RH WIND       PRES   REMARKS
ST LOUIS INTL  CLOUDY    40  34  79 W10       30.02R

$$
MOZ072>076-082>087-097>100-106>115-050300-
...SOUTH CENTRAL AND SOUTHEAST MISSOURI...

CITY           SKY/WX    TMP DP  RH WIND       PRES   REMARKS
CAPE GIRARDEAU CLOUDY    42  36  79 NW7       30.03R
POPLAR BLUFF   CLOUDY    44  40  85 CALM      30.03S
WEST PLAINS    PTCLDY    37  35  92 W3        30.03R

$$


USA.gov is the U.S. government's official web portal to all federal, state and local government web resources and services.